Tracking 19795 objects as of 20-Jul-2019
HD Live streaming from Space Station
objects crossing your sky now

BRAZILSAT B2

Track BRAZILSAT B2 now!
BRAZILSAT B2 is classified as:


NORAD ID: 23536
Int'l Code: 1995-016A
Perigee: 36,082.2 km
Apogee: 36,089.5 km
Inclination: 8.2 °
Period: 1,451.0 minutes
Semi major axis: 42456 km
RCS: 7.5458 m2 (large)
Launch date: March 28, 1995
Source: Brazil (BRAZ)
Launch site: FRENCH GUIANA (FRGUI)

24 C-band; several X-band.
aabbcc
Your satellite tracking list
Your tracking list is empty




NASA's NSSDC Master Catalog

Two Line Element Set (TLE):
1 23536U 95016A   19199.52136841 -.00000195  00000-0  00000+0 0  9994
2 23536   8.1807  47.0849 0000859  45.2468 326.8205  0.99238700 88952
Source of the keplerian elements: AFSPC